EFW9SA EGKK-EGJJ

Flight info

Callsign EFW9SA
Flight time N/A
Altitude 20000
Route NOVMA L620 SAM N63 LELNA
Aircraft A320/M-SDE3FGHIRWY/LB1

Departure

Time 2026-04-16 07:15
Airport London Gatwick Airport (EGKK)

Arrival

Time N/A
Airport Jersey Airport (EGJJ)
Time Latitude Longitude Altitude Speed Heading
2026-04-16 07:08 51.15506 -0.16778 204 ft 0 kts 348°
2026-04-16 07:08 51.15491 -0.16773 212 ft 4 kts 348°
2026-04-16 07:08 51.15467 -0.16765 213 ft 4 kts 336°
2026-04-16 07:09 51.15448 -0.16740 216 ft 4 kts 289°
2026-04-16 07:09 51.15445 -0.16699 211 ft 4 kts 264°
2026-04-16 07:09 51.15449 -0.16657 212 ft 4 kts 257°
2026-04-16 07:09 51.15453 -0.16625 210 ft 3 kts 257°
2026-04-16 07:10 51.15454 -0.16617 210 ft 0 kts 257°
2026-04-16 07:12 51.15454 -0.16618 210 ft 0 kts 257°
2026-04-16 07:12 51.15449 -0.16658 212 ft 7 kts 257°
2026-04-16 07:12 51.15416 -0.16718 204 ft 9 kts 179°
2026-04-16 07:12 51.15345 -0.16691 213 ft 12 kts 163°
2026-04-16 07:13 51.15255 -0.16654 204 ft 15 kts 167°
2026-04-16 07:13 51.15154 -0.16634 203 ft 12 kts 198°
2026-04-16 07:13 51.15132 -0.16730 202 ft 5 kts 257°
2026-04-16 07:13 51.15132 -0.16731 202 ft 0 kts 257°
2026-04-16 07:14 51.15113 -0.16857 214 ft 39 kts 257°
2026-04-16 07:15 51.15005 -0.17639 210 ft 103 kts 257°
2026-04-16 07:15 51.14816 -0.19025 227 ft 148 kts 254°
2026-04-16 07:15 51.14600 -0.20612 835 ft 145 kts 255°
2026-04-16 07:15 51.14386 -0.22169 1522 ft 144 kts 255°
2026-04-16 07:16 51.14151 -0.23847 1812 ft 167 kts 255°
2026-04-16 07:16 51.13884 -0.25774 2093 ft 190 kts 256°
2026-04-16 07:16 51.13560 -0.27932 2463 ft 212 kts 255°
2026-04-16 07:16 51.13169 -0.30335 2992 ft 234 kts 254°
2026-04-16 07:17 51.12751 -0.32872 3957 ft 237 kts 254°
2026-04-16 07:17 51.12327 -0.35422 4991 ft 240 kts 254°
2026-04-16 07:17 51.11897 -0.38014 5921 ft 244 kts 255°
2026-04-16 07:17 51.11458 -0.40655 6828 ft 249 kts 254°
2026-04-16 07:18 51.11012 -0.43338 7704 ft 253 kts 255°
2026-04-16 07:18 51.10563 -0.46036 8577 ft 257 kts 254°
2026-04-16 07:18 51.10102 -0.48807 9459 ft 261 kts 254°
2026-04-16 07:18 51.09635 -0.51622 10289 ft 266 kts 255°
2026-04-16 07:19 51.09142 -0.54585 10581 ft 289 kts 255°
2026-04-16 07:19 51.08605 -0.57794 10821 ft 310 kts 255°
2026-04-16 07:19 51.08041 -0.61162 11386 ft 318 kts 255°
2026-04-16 07:19 51.07467 -0.64598 12098 ft 322 kts 255°
2026-04-16 07:20 51.06888 -0.68054 12815 ft 325 kts 255°
2026-04-16 07:20 51.06311 -0.71495 13538 ft 328 kts 255°
2026-04-16 07:20 51.05711 -0.75062 14268 ft 331 kts 255°
2026-04-16 07:20 51.05116 -0.78598 14938 ft 333 kts 255°
2026-04-16 07:21 51.04514 -0.82167 15598 ft 335 kts 255°
2026-04-16 07:21 51.03906 -0.85745 16235 ft 337 kts 255°
2026-04-16 07:21 51.03293 -0.89357 16871 ft 339 kts 255°
2026-04-16 07:21 51.02677 -0.92987 17534 ft 342 kts 256°
2026-04-16 07:22 51.02057 -0.96638 18194 ft 344 kts 256°
2026-04-16 07:22 51.01392 -1.00311 18812 ft 347 kts 250°
2026-04-16 07:22 51.00202 -1.03609 19406 ft 354 kts 233°
2026-04-16 07:22 50.98330 -1.06220 19936 ft 364 kts 220°
2026-04-16 07:23 50.96253 -1.08507 20100 ft 364 kts 219°
2026-04-16 07:23 50.94107 -1.10807 20140 ft 379 kts 218°
2026-04-16 07:23 50.91894 -1.13148 20139 ft 384 kts 218°
2026-04-16 07:23 50.89662 -1.15491 20139 ft 385 kts 218°
2026-04-16 07:24 50.87425 -1.17839 20138 ft 386 kts 218°
2026-04-16 07:24 50.85193 -1.20190 20135 ft 386 kts 218°
2026-04-16 07:24 50.82958 -1.22553 20140 ft 387 kts 218°
2026-04-16 07:24 50.80722 -1.24929 20141 ft 386 kts 218°
2026-04-16 07:25 50.78492 -1.27297 20140 ft 386 kts 218°
2026-04-16 07:25 50.76257 -1.29669 20142 ft 387 kts 218°
2026-04-16 07:25 50.74025 -1.32039 20144 ft 387 kts 218°
2026-04-16 07:25 50.71788 -1.34410 20147 ft 387 kts 218°
2026-04-16 07:26 50.69555 -1.36770 20147 ft 387 kts 218°
2026-04-16 07:26 50.67314 -1.39130 20155 ft 387 kts 218°
2026-04-16 07:26 50.65102 -1.41454 20166 ft 387 kts 218°
2026-04-16 07:26 50.62864 -1.43808 20139 ft 387 kts 218°
2026-04-16 07:27 50.60631 -1.46161 20146 ft 387 kts 218°
2026-04-16 07:27 50.58391 -1.48520 20153 ft 387 kts 218°
2026-04-16 07:27 50.56151 -1.50870 20154 ft 387 kts 218°
2026-04-16 07:27 50.53904 -1.53220 20150 ft 388 kts 218°
2026-04-16 07:28 50.51658 -1.55569 20162 ft 388 kts 218°
2026-04-16 07:28 50.49412 -1.57914 20164 ft 388 kts 218°
2026-04-16 07:28 50.47167 -1.60254 20169 ft 388 kts 218°
2026-04-16 07:28 50.47014 -1.60413 20159 ft 388 kts 218°
2026-04-16 07:42 50.45702 -1.61781 19913 ft 392 kts 214°